RH
3 2 2 3 3 3 4 5 8 10 15 16 17 16 14 15 14 14 14 16 16 18 19 22 27 28 32 34 36 36 35 35 37
2 2 2 2 3 3 4 4 5 6 7 8 8 8 10 12 16 18 19 19 19 23 26 28 31 34 36 38 39 40 41 41 39
2 3 3 6 8 7 4 4 4 4 4 4 5 5 6 10 11 16 18 19 19 22 25 31 34 36 37 39 39 38 38 39 39
3 5 8 13 15 7 3 3 3 4 3 4 4 4 5 6 8 10 13 16 17 19 21 25 28 31 31 30 30 30 31 32 34
3 7 12 17 17 4 3 3 3 3 4 4 4 4 4 6 7 8 9 11 14 15 19 22 23 24 25 25 26 28 27 28 27
3 5 11 16 10 4 3 3 3 4 4 4 4 5 5 5 7 6 8 11 13 14 16 18 21 23 25 24 23 24 23 25 26
7 10 10 11 6 4 4 4 4 5 6 6 5 5 5 5 7 5 6 10 12 14 16 20 20 22 24 25 25 24 30 32 34
22 20 12 7 5 4 4 4 5 7 8 8 6 5 5 5 7 6 6 8 12 15 18 19 22 22 25 27 30 30 31 30 31
14 17 20 7 5 5 5 5 6 7 8 9 8 6 5 4 6 6 6 8 12 16 20 20 20 24 28 30 29 22 22 30 31
18 25 32 21 15 19 14 15 21 10 8 12 10 7 6 5 6 8 7 8 11 14 20 20 22 24 28 25 20 20 23 29 29
10 14 31 51 46 18 18 22 21 21 17 15 16 13 9 7 6 9 10 10 12 15 17 20 24 26 25 21 21 22 22 22 24
8 8 15 28 45 58 44 31 30 28 28 24 26 29 19 12 8 10 13 14 14 17 18 18 23 23 22 23 27 26 20 24 28
11 10 9 19 32 42 43 43 39 37 36 37 33 38 35 24 19 13 20 21 24 27 28 28 23 23 23 22 24 30 28 24 24
12 12 12 9 11 27 38 50 59 64 60 56 54 49 43 44 33 24 19 34 40 46 50 62 56 32 28 30 28 28 34 34 29
27 22 19 17 14 18 22 14 16 35 43 56 53 61 63 65 52 39 34 45 50 59 72 80 83 73 46 36 38 36 33 36 32
24 26 28 23 26 27 28 29 15 14 35 44 61 53 65 66 71 66 54 54 61 74 91 87 87 85 81 89 75 48 48 40 37
20 28 28 26 41 40 40 41 37 28 54 48 59 57 54 62 81 83 93 94 76 75 90 98 94 86 91 88 91 97 88 68 58
20 20 32 47 38 41 41 40 47 52 57 61 72 80 76 72 71 88 96 97 97 96 91 98 96 85 88 93 90 89 87 93 89
8 19 21 27 29 37 37 37 32 42 54 70 74 83 73 85 82 91 94 93 97 98 97 97 91 75 84 89 90 82 84 84 84
12 13 11 10 13 26 30 38 34 38 31 59 78 84 87 86 95 93 99 97 95 97 95 95 98 90 74 64 78 92 88 77 85
Wind_Speed
19 18 18 17 17 17 17 18 18 18 17 17 18 19 20 18 17 17 17 17 17 17 17 17 17 18 19 20 21 22 23 23 22
19 19 19 18 18 18 18 18 19 20 20 21 21 21 21 19 18 16 17 19 20 17 17 18 19 20 22 22 24 24 24 24 24
20 20 20 19 19 19 18 19 20 22 22 23 24 23 22 20 21 19 19 20 21 20 20 20 21 22 23 24 25 25 25 24 24
21 21 20 20 20 20 20 20 21 21 22 22 23 23 23 22 21 20 20 21 22 21 21 22 23 24 25 25 25 24 24 24 23
22 22 22 21 21 21 20 20 20 20 21 21 21 21 21 21 21 21 21 21 22 23 22 22 23 23 24 25 25 24 24 23 23
24 23 23 23 22 20 18 18 19 19 20 21 20 20 21 21 20 21 21 21 23 23 23 23 23 24 24 24 25 24 23 22 20
23 23 23 22 21 21 20 20 20 21 21 21 21 22 22 22 21 23 24 22 22 23 23 23 23 23 23 23 23 23 20 19 19
24 24 23 22 21 22 22 22 22 23 23 23 23 23 23 22 21 23 24 24 23 22 23 23 23 23 23 23 22 23 23 23 21
26 26 24 23 24 24 24 24 25 25 24 24 25 26 25 23 22 23 24 25 24 23 23 23 23 23 24 24 25 25 24 23 22
26 25 25 24 24 26 26 26 27 27 27 27 26 27 27 26 25 22 25 25 25 25 25 24 25 25 25 25 24 23 23 23 21
30 28 27 27 27 27 29 29 29 29 30 30 29 28 28 29 27 24 26 26 25 25 24 25 26 26 26 24 22 22 22 22 21
33 33 31 31 32 31 31 31 31 32 31 32 33 30 30 30 30 27 26 28 26 26 26 26 27 27 26 25 23 22 21 20 20
36 36 37 36 36 37 37 36 35 34 36 35 36 34 32 32 32 31 28 29 29 28 28 28 29 29 28 27 27 25 24 22 22
39 39 38 39 38 38 39 41 40 38 39 39 39 36 35 35 33 33 32 30 30 31 30 30 30 30 30 30 30 28 27 26 25
41 41 41 41 41 41 41 43 44 43 44 44 44 41 40 38 37 34 33 34 33 31 32 32 33 33 33 32 33 32 31 29 29
43 43 44 45 45 45 46 47 47 47 48 48 47 46 45 43 40 38 37 36 37 35 34 35 32 32 33 34 37 36 34 33 33
46 46 46 48 48 48 48 49 49 50 49 50 51 50 49 45 44 43 42 41 39 39 39 38 36 37 34 31 31 36 41 39 38
49 50 49 49 51 50 51 51 52 52 51 52 51 51 49 48 47 45 46 45 42 41 42 40 40 39 39 37 37 32 30 35 34
52 52 54 55 55 55 55 55 54 54 53 54 52 55 54 52 50 47 47 47 45 43 43 42 43 42 41 40 40 40 40 38 37
49 52 56 57 59 57 59 59 60 58 58 56 55 55 56 56 53 52 49 48 48 46 46 47 46 48 45 42 44 43 41 39 40
Wind_Direction
294 294 293 295 296 299 302 303 302 298 294 293 292 294 297 298 299 298 299 299 301 302 302 301 300 299 296 296 298 303 307 308 310
294 295 297 300 302 303 304 301 296 294 292 291 291 293 295 298 298 299 299 304 303 301 299 298 296 296 295 297 299 303 305 305 306
299 301 305 306 305 303 299 298 296 295 295 296 295 294 295 296 297 299 300 299 299 300 299 296 294 294 296 298 300 302 304 304 305
299 301 302 302 302 301 301 300 298 297 295 295 295 295 293 294 294 296 296 297 297 299 299 297 296 297 297 298 299 300 301 302 301
300 300 301 301 301 301 301 300 299 298 298 295 297 300 301 302 301 301 300 299 298 298 298 297 297 298 299 299 300 301 303 303 303
300 301 301 302 303 302 301 298 295 295 296 297 300 301 302 301 300 299 297 295 295 295 295 295 297 297 297 298 301 304 305 303 304
298 299 299 300 300 299 297 295 295 294 296 299 299 300 299 299 300 299 297 293 292 293 294 294 295 294 296 299 302 302 303 301 303
297 299 298 296 294 292 291 291 292 294 297 299 299 298 297 298 295 296 297 295 291 290 291 292 292 295 298 299 297 299 300 300 301
296 296 297 296 294 291 291 292 293 293 293 295 297 296 295 294 293 294 294 296 294 292 291 291 291 292 293 293 295 295 295 296 297
287 289 290 292 294 293 293 294 294 293 292 294 295 295 295 293 292 290 291 293 293 292 291 291 291 292 291 292 293 294 293 292 292
287 286 285 287 285 283 288 290 292 292 291 291 290 291 290 289 288 289 290 290 291 290 290 288 289 290 290 289 291 294 294 290 286
291 290 287 284 282 283 286 287 289 290 290 287 286 286 288 288 288 287 288 289 289 288 290 289 287 286 286 285 289 292 293 291 287
290 290 289 287 285 285 286 286 287 287 286 285 284 286 287 285 284 285 285 286 287 288 289 289 288 285 282 282 285 288 290 292 289
289 289 288 288 288 288 289 287 284 283 284 285 284 284 282 280 280 280 281 280 282 284 284 285 285 284 282 281 281 282 282 283 285
285 287 287 286 286 286 283 282 284 283 283 282 281 282 280 278 278 278 278 276 278 280 280 284 285 279 279 279 278 277 277 279 281
285 283 283 284 283 282 281 280 281 280 278 277 278 278 278 279 277 276 274 275 275 275 279 279 285 281 279 281 278 275 274 274 277
283 282 282 280 279 280 278 278 279 280 279 278 277 276 275 278 277 274 274 269 270 274 276 275 275 280 280 279 287 280 267 264 272
283 283 280 279 279 277 277 277 278 278 276 277 277 278 278 276 275 275 272 274 271 271 275 275 275 275 276 277 280 278 272 282 275
281 281 281 282 281 280 278 276 274 272 272 273 274 275 274 274 273 273 274 272 275 273 275 276 274 274 273 277 277 277 275 277 277
276 278 280 280 281 282 281 278 277 272 269 269 270 272 272 272 273 272 271 271 273 278 276 275 275 274 273 275 278 275 274 276 277